STARLINK-4498 (53434 NORAD) Tracking and Keplerian Element Data

This shows tracking and keplerian element data for the satellite.

Feedback or suggestion? Click here.




ElementValue
Catalog53434
NameSTARLINK-4498
Epoch Orbit130
Epoch Day324.91667824
Epoch Year2022
RAAN112.2787
Inclination53.2157
Eccentricity0.0001445
Argument of Perigee65.6393
Mean Anonmoly89.0376
Mean Motion15.08843269
Decay Rate-0.00014488
L11 53434U 22097AY 22324.91667824 -.00014488 00000+0 -89393-3 0 9996
L22 53434 53.2157 112.2787 0001445 65.6393 89.0376 15.08843269 1301



Live tracking and technical data element details for STARLINK-4498 (NORAD 53434). STARLINK-4498 can be tracked NOW for your location showing map with azimuth and elevation plus other details from your city location.







IsCatalogInMostPopularTable: catalog: 53434, numindb: 7
Update: records affected: 1



GetName: 53434 STARLINK-4498

Hit Count: updated at: Tue, 29 Nov 2022 00:02:17 GMT